COSMOS 1110

导读

COSMOS 1110是苏联(CIS)宇宙系列卫星,1979年6月28日发射入轨。作为冷战时期苏联航天活动产物,它运行在近圆太阳同步轨道,轨道倾角约74度,近地点约768公里、远地点约788公里,每日绕地球14.34圈,属军民两用技术试验卫星,延续了宇宙系列验证空间技术的任务定位,是苏联航天体系建设的组成部分。

Basic Information
目录编号:
11425
目录名称:
COSMOS 1110
国际标识:
1979-060A
轨道中心:
EARTH
卫星名称:
COSMOS 1110
卫星全名:
--
卫星状态:
在轨 (已飞行17243 天)
发射日期:
1979-06-28 UTC
国别 :
俄罗斯(独联体) (CIS)
星等 :
--
This satellite is enrolled in the Space Conjunction Data Service (SCDS) and the current flight risk assessment level is: High Risk
Orbit Information
数据来源 国际轨道数据 AOE轨道数据
星历时间 2026-09-12T00:23:20+0800
13小时前
查看轨道信息
2026-09-06T21:00:00+0800
5天前
查看轨道信息
半长轴 7155.664km 7155.67km
偏心率 0.0013271 0.0013201
轨道倾角 74.012° 74.013°
近地点辐角 137.067° 147.617°
升交点赤经 89.857° 99.282°
平近点角 223.152° 317.502°
近地点 768.03km 768.086km
远地点 787.024km 786.98km
周期 100.400分钟 100.400分钟
每日圈数 14.3426 14.342582
Detailed Information
使用方式:
暂无
2D Orbit Map
3D Orbit Map
Orbit Altitude Analysis Chart
Orbit Inclination Analysis Chart
Orbit Comprehensive Analysis Chart
View Comprehensive Chart
Conjunction Data List
Event ID Objects TCA Miss Dist (km) Collision Risk Probability Collision Risk Index (CRI) Action
CDM_260913-134701-142504-307025
2026-09-13T
13:47:44+0000
0.144 km
中距离
1.008055E-3 极高风险 0.95
CDM_260912-161501-142505-834927
2026-09-12T
16:15:02+0000
0.934 km
远距离
3.079097E-5 中风险 0.65
CDM_260912-102301-142505-834929
2026-09-12T
10:23:23+0000
1.185 km
极远距离
1.35017E-5 中风险 0.58
CDM_260912-212001-142504-237227
2026-09-12T
21:20:24+0000
1.235 km
极远距离
8.831662E-6 低风险 0.54
CDM_260913-193901-142504-307024
2026-09-13T
19:39:17+0000
2.136 km
极远距离
2.402913E-6 低风险 0.43
CDM_260912-175501-142505-834927
2026-09-12T
17:55:29+0000
2.307 km
极远距离
1.871347E-6 低风险 0.4
CDM_260914-154901-142501-595021
2026-09-14T
15:49:17+0000
2.458 km
极远距离
1.77826E-6 低风险 0.4
CDM_260912-084201-142505-834929
2026-09-12T
08:42:55+0000
2.630 km
极远距离
1.473977E-6 低风险 0.38
Miss Distance Evolution Trend with All Objects
Collision Probability Evolution Trend with All Objects